Location: Unspecified
(22.6800°N, 112.2000°E)
Time: 14:46:50
(UTC+08:00)

S-56A Canister/Altair - All Passes

Search period start: 24 July 2021 00:00
Search period end: 03 August 2021 00:00
Orbit: 632 x 2501 km, 38.9° (Epoch: 23 July)

Date Brightness Start Highest point End Pass type
(mag) Time Alt. Az. Time Alt. Az. Time Alt. Az.
24 Jul - 00:33:10 10° WNW 00:43:09 81° SW 00:49:32 10° SE visible
24 Jul - 02:43:13 10° WSW 02:46:00 13° SW 02:48:29 10° SSW night (unlit)
24 Jul - 13:24:52 10° S 13:33:28 21° SE 13:43:13 10° E daylight
24 Jul - 15:25:14 10° SW 15:38:44 68° SE 15:53:38 10° ENE daylight
24 Jul - 17:31:24 10° WSW 17:46:08 61° NNW 17:59:56 10° NE daylight
24 Jul - 19:41:35 10° WNW 19:55:04 39° N 20:05:53 10° ENE visible
24 Jul - 21:51:43 10° NW 22:03:50 41° NNE 22:12:20 10° E visible
24 Jul - 23:59:29 10° NW 00:10:18 88° NNE 00:17:11 10° SE visible
25 Jul - 02:08:31 10° W 02:13:31 18° SW 02:17:32 10° S night (unlit)
25 Jul - 12:53:24 10° SSE 13:00:19 17° SE 13:08:06 10° E daylight
25 Jul - 14:52:24 10° SW 15:05:12 60° SE 15:20:00 10° ENE daylight
25 Jul - 16:57:49 10° WSW 17:12:20 65° NNW 17:26:42 10° NE daylight
25 Jul - 19:07:26 10° WNW 19:21:17 40° N 19:32:49 10° ENE daylight
25 Jul - 21:17:43 10° NW 21:30:21 41° N 21:39:28 10° ENE visible
25 Jul - 23:25:46 10° NW 23:37:20 79° NNE 23:44:45 10° ESE visible
26 Jul - 01:34:18 10° W 01:41:00 24° SW 01:46:02 10° S visible
26 Jul - 12:22:47 10° SSE 12:27:14 13° SE 12:32:06 10° ESE daylight
26 Jul - 14:19:42 10° SSW 14:31:46 53° SE 14:46:14 10° ENE daylight
26 Jul - 16:24:21 10° WSW 16:38:33 70° NNW 16:53:23 10° NE daylight
26 Jul - 18:33:23 10° W 18:47:26 42° NNW 18:59:42 10° NE daylight
26 Jul - 20:43:42 10° WNW 20:56:47 40° N 21:06:32 10° ENE visible
26 Jul - 22:51:59 10° NW 23:04:16 72° NNE 23:12:13 10° ESE visible
27 Jul - 01:00:15 10° WNW 01:08:26 31° SW 01:14:15 10° SSE visible
27 Jul - 13:47:09 10° SSW 13:58:25 47° SE 14:12:21 10° ENE daylight
27 Jul - 15:51:03 10° WSW 16:04:47 76° NNW 16:19:57 10° NE daylight
27 Jul - 17:59:26 10° W 18:13:32 44° NNW 18:26:28 10° NE daylight
27 Jul - 20:09:39 10° WNW 20:23:07 40° N 20:33:31 10° ENE visible
27 Jul - 22:18:11 10° NW 22:31:04 66° NNE 22:39:37 10° ESE visible
28 Jul - 00:26:17 10° WNW 00:35:48 40° SW 00:42:18 10° SSE visible
28 Jul - 13:14:46 10° SSW 13:25:10 40° SE 13:38:19 10° ENE daylight
28 Jul - 15:17:55 10° WSW 15:31:05 82° NNW 15:46:27 10° NE daylight
28 Jul - 17:25:36 10° W 17:39:37 47° NNW 17:53:09 10° NE daylight
28 Jul - 19:35:38 10° WNW 19:49:22 40° N 20:00:24 10° ENE visible
28 Jul - 21:44:20 10° NW 21:57:46 61° NNE 22:06:55 10° ESE visible
28 Jul - 23:52:20 10° WNW 00:03:03 49° SW 00:10:12 10° SSE visible
29 Jul - 12:42:33 10° S 12:52:02 34° SE 13:04:07 10° ENE daylight
29 Jul - 14:44:54 10° SW 14:57:27 89° NW 15:12:50 10° NE daylight
29 Jul - 16:51:55 10° W 17:05:42 49° NNW 17:19:45 10° NE daylight
29 Jul - 19:01:39 10° WNW 19:15:30 40° N 19:27:11 10° ENE daylight
29 Jul - 21:10:29 10° NW 21:24:21 57° NNE 21:34:07 10° E visible
29 Jul - 23:18:26 10° WNW 23:30:12 59° SW 23:38:00 10° SE visible
30 Jul - 12:10:32 10° S 12:19:00 28° SE 12:29:45 10° ENE daylight
30 Jul - 14:12:01 10° SW 14:23:54 84° SE 14:39:10 10° ENE daylight
30 Jul - 16:18:21 10° W 16:31:48 52° NNW 16:46:18 10° NE daylight
30 Jul - 18:27:43 10° WNW 18:41:36 40° N 18:53:53 10° ENE daylight
30 Jul - 20:36:38 10° NW 20:50:49 54° NNE 21:01:14 10° E visible
30 Jul - 22:44:31 10° WNW 22:57:14 68° SW 23:05:40 10° SE visible
31 Jul - 00:56:08 10° W 01:00:27 14° SW 01:04:08 10° SSW visible
31 Jul - 11:38:46 10° S 11:46:03 22° SE 11:55:08 10° E daylight
31 Jul - 13:39:16 10° SW 13:50:27 76° SE 14:05:24 10° ENE daylight
31 Jul - 15:44:56 10° W 15:57:57 55° NNW 16:12:44 10° NE daylight
31 Jul - 17:53:52 10° WNW 18:07:39 41° N 18:20:28 10° ENE daylight
31 Jul - 20:02:47 10° NW 20:17:11 51° NNE 20:28:14 10° E visible
31 Jul - 22:10:38 10° WNW 22:24:09 78° SW 22:33:14 10° SE visible
01 Aug - 00:21:01 10° W 00:27:47 19° SW 00:33:11 10° SSW visible
01 Aug - 11:07:22 10° SSE 11:13:11 17° SE 11:20:10 10° E daylight
01 Aug - 13:06:39 10° SW 13:17:08 68° SE 13:31:34 10° ENE daylight
01 Aug - 15:11:39 10° W 15:24:08 58° NNW 15:39:08 10° NE daylight
01 Aug - 17:20:07 10° WNW 17:33:41 41° N 17:46:59 10° ENE daylight
01 Aug - 19:28:58 10° NW 19:43:27 49° NNE 19:55:06 10° E visible
01 Aug - 21:36:46 10° WNW 21:50:56 86° SW 22:00:42 10° SE visible
01 Aug - 23:46:23 10° W 23:55:04 25° SW 00:01:41 10° S visible
02 Aug - 10:36:47 10° SSE 10:40:23 12° SE 10:44:26 10° ESE daylight
02 Aug - 12:34:10 10° SW 12:43:55 60° SE 12:57:39 10° ENE daylight
02 Aug - 14:38:30 10° WSW 14:50:25 62° NNW 15:05:26 10° NE daylight
02 Aug - 16:46:27 10° WNW 16:59:42 42° N 17:13:23 10° ENE daylight
02 Aug - 18:55:12 10° NW 19:09:39 47° NNE 19:21:51 10° E daylight
02 Aug - 21:02:57 10° NW 21:17:37 86° NE 21:28:02 10° ESE visible
02 Aug - 23:11:59 10° WNW 23:22:17 31° SW 23:29:52 10° S visible
